Location: Kergonan
(48.2337°N, 4.5518°W)
Time: 12:45:31
(UTC+00:00)

Cosmos 1726 - Pass Details

Date: 18 January 2020
Orbit: 482 x 500 km, 82.5° (Epoch: 20 February)

Event Time Altitude Azimuth Distance (km) Brightness Sun altitude
Rises 05:43:04 0° 161° (SSE) 2,562 6.1 -22.7°
Reaches altitude 10° 05:45:22 10° 149° (SSE) 1,683 5.3 -22.3°
Maximum altitude 05:48:30 27° 90° (E) 983 4.3 -21.8°
Drops below altitude 10° 05:51:38 10° 32° (NNE) 1,687 5.1 -21.3°
Sets 05:53:57 0° 20° (NNE) 2,571 5.9 -20.9°
